{"data":{"norad_id":56129,"intl_designator":"2023-046AP","name":"STARLINK-6121","alt_names":[],"object_type":"PAYLOAD","status":"ACTIVE","operator":null,"country":"US","launch_date":"2023-03-29","launch_site_code":"AFETR","launch_vehicle":null,"mission":null,"orbit_class":"UNKNOWN","rcs_meters":null,"size_class":null,"mass_kg":null,"dimensions":null,"purposes":["comms"],"wikipedia_slug":null,"has_3d_model":false,"image_url":null,"decayed_at":null,"tle_current":{"epoch":"2026-05-25T00:06:56.045376Z","epoch_age_seconds":74694,"freshness":"FRESH","line1":"1 56129U 23046AP  26145.00481534  .00003091  00000+0  12184-3 0  9992","line2":"2 56129  43.0037  24.7717 0001465 260.0962  99.9724 15.27571960174466","mean_motion":15.2757196,"eccentricity":0.0001465,"inclination_deg":43.0037,"raan_deg":24.7717,"arg_perigee_deg":260.0962,"mean_anomaly_deg":99.9724,"bstar":0.00012184,"rev_number":17446,"period_min":94.267244863541,"perigee_km":482.0680035076,"apogee_km":484.07833808764,"semimajor_km":6861.2101707976,"source":"CELESTRAK","updated_at":"2026-05-25T13:38:17.960260Z"}}}